[[{"header":{"parameterUnit":"m.s-1","parameterCategory":1,"la1":30.2991,"la2":30.254,"lo1":-89.0895,"lo2":-89.0444,"dy":0.0017,"dx":0.0017,"nx":28,"ny":28,"refTime":"2024-08-05T03:00:00:Z","depth":0,"parameterNumber":2,"parameterNumberName":"U-component_of_WINDS"},"data":[0,0,0,0,0,0,0,0,0,0,0,0,0,0,0,0,0,0,0,0,0,0,0,0,0,0,0,0,0,0,0,0,0,0,0,0,0,0,0,0,0,0,0,0,0,0,0,0,0,0,0,0,0,0,0,0,0,0,0.9665,0.9664,0,0.9598,0.9597,0.9597,0.9549,0.9549,0.9548,0.9548,0.9473,0.9472,0.947,0,0,0,0,0,0,0,0,0,0,0,0,0,0.9746,0.9745,0.9665,0.9664,0.9663,0.9598,0.9597,0.9596,0.9549,0.9549,0.9548,0.9548,0.9474,0.9472,0.947,0,0,0,0,0,0,0,0,0,0,0,0,0,0.9698,0.9744,0.9665,0.9632,0.9628,0.9598,0.9597,0.9596,0.9549,0.9549,0.9548,0.9547,0.9474,0.9472,0.947,0.9466,0,0,0.9462,0.9461,0,0,0,0,0,0,0,0,0.9701,0.9695,0.9638,0.9634,0.963,0.9581,0.9599,0.9552,0.9549,0.9579,0.9548,0.9547,0.9509,0.9504,0.9492,0.9462,0.9459,0.9462,0.946,0.9459,0.9459,0,0,0,0,0,0,0,0.9704,0.9698,0.9638,0.9637,0.9632,0.9619,0.9611,0.9589,0.9548,0.9576,0.9573,0.9566,0.9507,0.9495,0.949,0.9458,0.9462,0.946,0.9458,0.9457,0.942,0.942,0,0,0,0,0,0,0.9714,0.9701,0.964,0.9636,0.9665,0.9618,0.9609,0.9597,0.9548,0.954,0.9566,0.9564,0.9499,0.9493,0.9488,0.9479,0.9459,0.9457,0.9456,0.942,0.942,0.9421,0,0,0,0,0,0,0.9716,0.9709,0.9643,0.9668,0.9658,0.9617,0.9604,0.9596,0.9584,0.9541,0.9532,0.9562,0.9499,0.9491,0.9472,0.9476,0.9456,0.9454,0.9419,0.942,0.942,0.9463,0,0,0,0,0,0,0.9718,0.971,0.9709,0.9668,0.9657,0.963,0.9604,0.9596,0.9581,0.9577,0.9534,0.9527,0.9498,0.9476,0.9469,0.9472,0.9452,0.9418,0.9419,0.942,0.9461,0.9465,0.9468,0,0,0,0,0,0.9721,0.9722,0.9709,0.9702,0.9656,0.9631,0.9624,0.9593,0.9582,0.9579,0.9551,0.9528,0.9477,0.9474,0.9466,0.9469,0.9418,0.9419,0.942,0.9459,0.9464,0.9468,0,0,0,0,0,0,0.9762,0.9716,0.9701,0.9689,0.9665,0.9623,0.9619,0.9599,0.9575,0.9572,0.9532,0.9523,0.9508,0.9486,0.9484,0.9462,0.9444,0.9444,0.9477,0.9481,0.9485,0.949,0.945,0,0,0,0,0,0.9771,0.9756,0.9716,0.9709,0.9698,0.9661,0.9649,0.9627,0.9599,0.9587,0.9558,0.9529,0.9507,0.9493,0.947,0.9458,0.9447,0.9455,0.9459,0.9462,0.9462,0.9454,0.9457,0.9424,0.9424,0.9424,0,0,0.9786,0.9759,0.9752,0.9717,0.9695,0.9679,0.9652,0.9636,0.9623,0.9584,0.9565,0.9542,0.9508,0.9492,0.9484,0.9474,0.9469,0.9464,0.9467,0.9465,0.9455,0.9458,0.9461,0.9425,0.9425,0.9425,0,0,0.9807,0.9786,0.9778,0.9757,0.9725,0.9701,0.9699,0.9661,0.9645,0.9625,0.9595,0.9578,0.9541,0.9518,0.9501,0.9514,0.9491,0.9507,0.9527,0.9519,0.9521,0.9523,0.9527,0.9529,0.9507,0.9508,0.9508,0,0.983,0.9807,0.9776,0.9763,0.9747,0.9713,0.9704,0.9685,0.9646,0.9636,0.9625,0.9578,0.9552,0.9531,0.9534,0.9522,0.9517,0.9512,0.9524,0.9526,0.9527,0.953,0.9532,0.951,0.951,0.9509,0.9509,0,0.9837,0.9821,0.9818,0.9784,0.9769,0.9758,0.9723,0.9711,0.9691,0.9667,0.9647,0.9615,0.9585,0.9579,0.9558,0.9554,0.9549,0.9532,0.9513,0.9533,0.9535,0.9536,0.9513,0.9512,0.9511,0.9511,0,0,0.9881,0.9831,0.983,0.9815,0.9777,0.9763,0.975,0.9723,0.9713,0.9687,0.9674,0.9644,0.9628,0.9609,0.9585,0.9579,0.959,0.9562,0.9561,0.9568,0.9583,0.9596,0.9598,0.9575,0.9576,0.9576,0.9586,0,0.9895,0.9872,0.9844,0.9829,0.9814,0.9781,0.9769,0.9744,0.9722,0.9704,0.9678,0.9657,0.9639,0.9627,0.9619,0.9591,0.9593,0.959,0.9561,0.956,0.957,0.9599,0.9612,0.9623,0.9587,0.9587,0.9587,0,0.9909,0.9888,0.9872,0.9837,0.9829,0.9819,0.9792,0.9776,0.9746,0.973,0.971,0.9685,0.9667,0.9652,0.9627,0.9625,0.9612,0.9596,0.9596,0.9591,0.9574,0.9594,0.9626,0.9628,0.9588,0.9588,0.9588,0,0.9942,0.9909,0.9896,0.9883,0.9841,0.9835,0.9817,0.9787,0.9773,0.9748,0.9738,0.9711,0.9696,0.9675,0.9643,0.9635,0.9621,0.9602,0.9605,0.9606,0.9603,0.9603,0.9632,0.9596,0.9596,0.9596,0.9596,0,0.9961,0.9952,0.991,0.9902,0.9891,0.9858,0.9848,0.9826,0.98,0.9786,0.9755,0.9742,0.9701,0.9682,0.9657,0.9639,0.9632,0.9618,0.9611,0.962,0.9622,0.961,0.9608,0.9596,0.9596,0.9596,0.9596,0,0.9995,0.9967,0.995,0.9913,0.9903,0.9897,0.9864,0.9853,0.983,0.9812,0.9806,0.9768,0.9744,0.9711,0.9676,0.9659,0.9644,0.9634,0.9655,0.9651,0.9656,0.9655,0.9677,0.9678,0.9642,0.9643,0.9643,0,1.0009,1.0002,0.9965,0.9954,0.9938,0.9921,0.9906,0.9873,0.9859,0.9826,0.9819,0.9794,0.9772,0.9735,0.9703,0.9676,0.9664,0.9674,0.966,0.9669,0.9663,0.9664,0.9663,0.9677,0.9677,0.9678,0.9678,0,1.0036,1.0022,1.0004,0.9981,0.9965,0.9945,0.9923,0.9915,0.9877,0.9862,0.9839,0.9823,0.9788,0.9763,0.9732,0.9711,0.9688,0.9683,0.9682,0.9691,0.9704,0.9696,0.9663,0.9683,0.9682,0.9682,0.9682,0.9681,1.006,1.0052,1.0025,1.0005,0.9986,0.9966,0.9955,0.9931,0.9912,0.9883,0.9864,0.9842,0.9811,0.9768,0.9748,0.9729,0.9719,0.9718,0.9718,0.9718,0.9721,0.9708,0.9723,0.9723,0.9723,0.9723,0.9723,0,1.0084,1.0066,1.0048,1.002,1.0004,0.9986,0.9961,0.9948,0.993,0.9905,0.9884,0.9857,0.9833,0.9799,0.9772,0.9763,0.9751,0.9756,0.9756,0.9752,0.9731,0.9735,0.9766,0.9766,0.9766,0.9766,0.9766,0.9766,1.0095,1.0082,1.0065,1.0041,1.0021,1.0001,0.9988,0.9969,0.9949,0.9921,0.9902,0.9881,0.9852,0.9823,0.9799,0.9789,0.978,0.9788,0.9776,0.9757,0.9753,0.9749,0.9752,0.9787,0.9787,0.9797,0.9798,0.9798]},{"header":{"parameterUnit":"m.s-1","parameterCategory":1,"la1":30.2991,"la2":30.254,"lo1":-89.0895,"lo2":-89.0444,"dy":0.0017,"dx":0.0017,"nx":28,"ny":28,"refTime":"2024-08-05T03:00:00:Z","depth":0,"parameterNumber":3,"parameterNumberName":"V-component_of_WINDS"},"data":[0,0,0,0,0,0,0,0,0,0,0,0,0,0,0,0,0,0,0,0,0,0,0,0,0,0,0,0,0,0,0,0,0,0,0,0,0,0,0,0,0,0,0,0,0,0,0,0,0,0,0,0,0,0,0,0,0,0,-2.1413,-2.1415,0,-2.1528,-2.153,-2.1531,-2.1543,-2.1542,-2.1541,-2.154,-2.1657,-2.1661,-2.1665,0,0,0,0,0,0,0,0,0,0,0,0,0,-2.1205,-2.1208,-2.1413,-2.1415,-2.1416,-2.1528,-2.153,-2.1531,-2.1544,-2.1542,-2.1541,-2.1539,-2.1656,-2.1661,-2.1666,0,0,0,0,0,0,0,0,0,0,0,0,0,-2.1305,-2.121,-2.1413,-2.1436,-2.1439,-2.1528,-2.153,-2.1532,-2.1544,-2.1542,-2.154,-2.1539,-2.1654,-2.166,-2.1666,-2.174,0,0,-2.1686,-2.1688,0,0,0,0,0,0,0,0,-2.1299,-2.1313,-2.1431,-2.1434,-2.1438,-2.152,-2.1499,-2.1602,-2.1544,-2.1504,-2.154,-2.1538,-2.1613,-2.1622,-2.1648,-2.1746,-2.1751,-2.1686,-2.169,-2.1693,-2.1694,0,0,0,0,0,0,0,-2.1292,-2.1308,-2.1459,-2.1433,-2.1437,-2.144,-2.1453,-2.1519,-2.1567,-2.1507,-2.1509,-2.1522,-2.1614,-2.1642,-2.1651,-2.1752,-2.1686,-2.1692,-2.1695,-2.1698,-2.1919,-2.1921,0,0,0,0,0,0,-2.1281,-2.1302,-2.1455,-2.1462,-2.1363,-2.1446,-2.1459,-2.1495,-2.1566,-2.1575,-2.1523,-2.1522,-2.1632,-2.1643,-2.1655,-2.1747,-2.1693,-2.1699,-2.1702,-2.1917,-2.1919,-2.1921,0,0,0,0,0,0,-2.1277,-2.1295,-2.145,-2.1383,-2.1403,-2.1451,-2.1491,-2.1498,-2.1526,-2.1578,-2.1587,-2.1542,-2.1631,-2.1646,-2.1719,-2.1751,-2.1701,-2.1707,-2.1914,-2.1917,-2.192,-2.1931,0,0,0,0,0,0,-2.1271,-2.1293,-2.1321,-2.1383,-2.1406,-2.1513,-2.1493,-2.1502,-2.1537,-2.1536,-2.1598,-2.1607,-2.1631,-2.171,-2.1726,-2.1759,-2.1712,-2.1911,-2.1916,-2.1919,-2.1928,-2.1934,-2.194,0,0,0,0,0,-2.1263,-2.1319,-2.1323,-2.1341,-2.1443,-2.1515,-2.1528,-2.1554,-2.1539,-2.1568,-2.1602,-2.1605,-2.1745,-2.1717,-2.1735,-2.1771,-2.191,-2.1914,-2.1919,-2.1926,-2.1933,-2.1939,0,0,0,0,0,0,-2.1259,-2.1328,-2.1332,-2.141,-2.1457,-2.1517,-2.1554,-2.1561,-2.1613,-2.161,-2.164,-2.1654,-2.1727,-2.1756,-2.1724,-2.1847,-2.1826,-2.1834,-2.1825,-2.1832,-2.1838,-2.1829,-2.1717,0,0,0,0,0,-2.1268,-2.1321,-2.1377,-2.1441,-2.1464,-2.1505,-2.1537,-2.1554,-2.1603,-2.1623,-2.1662,-2.171,-2.1765,-2.18,-2.1854,-2.1933,-2.1947,-2.1966,-2.1972,-2.1976,-2.1983,-2.2029,-2.2038,-2.1937,-2.1937,-2.1937,0,0,-2.1285,-2.1329,-2.136,-2.1441,-2.1479,-2.1534,-2.1521,-2.1579,-2.162,-2.1631,-2.1704,-2.1734,-2.179,-2.1867,-2.1902,-2.1893,-2.2015,-2.1982,-2.1985,-2.199,-2.2034,-2.2044,-2.2052,-2.194,-2.1939,-2.1939,0,0,-2.1345,-2.1383,-2.1441,-2.148,-2.1538,-2.1565,-2.1579,-2.1638,-2.1659,-2.1732,-2.1743,-2.1792,-2.1885,-2.1925,-2.1957,-2.2034,-2.2039,-2.2051,-2.208,-2.2124,-2.2132,-2.2139,-2.2168,-2.2177,-2.2057,-2.2057,-2.2057,0,-2.1359,-2.1442,-2.1469,-2.1528,-2.1563,-2.1577,-2.1636,-2.1672,-2.1744,-2.1769,-2.1757,-2.1877,-2.1915,-2.2002,-2.2021,-2.2046,-2.2064,-2.2044,-2.2129,-2.2136,-2.2143,-2.2171,-2.2181,-2.2059,-2.2058,-2.2058,-2.2058,0,-2.1457,-2.1514,-2.1554,-2.1624,-2.1664,-2.1722,-2.1759,-2.1797,-2.181,-2.1839,-2.1913,-2.196,-2.2024,-2.2046,-2.2059,-2.2135,-2.2128,-2.2122,-2.2102,-2.2154,-2.218,-2.2191,-2.206,-2.206,-2.2059,-2.2059,0,0,-2.1517,-2.1603,-2.1617,-2.165,-2.1716,-2.176,-2.182,-2.1883,-2.1915,-2.1964,-2.2015,-2.2095,-2.2091,-2.2128,-2.2146,-2.2184,-2.2244,-2.2175,-2.2176,-2.2186,-2.2332,-2.2336,-2.2348,-2.2247,-2.225,-2.2251,-2.2328,0,-2.1585,-2.1691,-2.1718,-2.1808,-2.1862,-2.1877,-2.1929,-2.1975,-2.2004,-2.2054,-2.2085,-2.2142,-2.2132,-2.2154,-2.2193,-2.2228,-2.2274,-2.2223,-2.2296,-2.2298,-2.2282,-2.2361,-2.2365,-2.2435,-2.2338,-2.234,-2.2341,0,-2.1677,-2.173,-2.1826,-2.1887,-2.191,-2.1956,-2.2017,-2.2065,-2.2118,-2.2136,-2.2178,-2.2193,-2.2256,-2.2232,-2.232,-2.2285,-2.2317,-2.2339,-2.2342,-2.235,-2.2323,-2.2372,-2.2458,-2.2469,-2.2357,-2.2356,-2.2355,0,-2.1712,-2.1807,-2.1877,-2.1905,-2.1977,-2.2009,-2.2041,-2.2092,-2.2129,-2.2182,-2.2206,-2.2266,-2.2299,-2.2345,-2.2375,-2.2355,-2.2461,-2.244,-2.2479,-2.2478,-2.25,-2.2498,-2.2593,-2.252,-2.2519,-2.2519,-2.2519,0,-2.1785,-2.1844,-2.1894,-2.1937,-2.2004,-2.2035,-2.21,-2.2131,-2.2178,-2.2228,-2.2244,-2.229,-2.2328,-2.238,-2.2405,-2.2474,-2.2489,-2.2506,-2.2512,-2.2505,-2.2503,-2.2526,-2.2522,-2.2522,-2.2521,-2.2521,-2.252,0,-2.1835,-2.1871,-2.1949,-2.2011,-2.2028,-2.2074,-2.2128,-2.2171,-2.2201,-2.2264,-2.228,-2.2327,-2.239,-2.2425,-2.2503,-2.252,-2.2597,-2.2601,-2.2579,-2.2582,-2.2619,-2.2615,-2.2732,-2.275,-2.2664,-2.2665,-2.2666,0,-2.1879,-2.1925,-2.1992,-2.2027,-2.2059,-2.2115,-2.2153,-2.2186,-2.2225,-2.229,-2.2325,-2.2389,-2.2441,-2.254,-2.2581,-2.2641,-2.2647,-2.2684,-2.2656,-2.2648,-2.2648,-2.2645,-2.265,-2.2688,-2.2689,-2.269,-2.269,0,-2.1954,-2.197,-2.2024,-2.2085,-2.213,-2.218,-2.2229,-2.2256,-2.2298,-2.2341,-2.2405,-2.2446,-2.2526,-2.2589,-2.2653,-2.2686,-2.2696,-2.2699,-2.2711,-2.2704,-2.2691,-2.2699,-2.2593,-2.2696,-2.2695,-2.2695,-2.2694,-2.2694,-2.2003,-2.2045,-2.2099,-2.216,-2.22,-2.2246,-2.229,-2.2326,-2.238,-2.2448,-2.2465,-2.2532,-2.2586,-2.2673,-2.2708,-2.2762,-2.2755,-2.2773,-2.2777,-2.2781,-2.2783,-2.2682,-2.2773,-2.2773,-2.2773,-2.2773,-2.2773,0,-2.208,-2.2116,-2.2171,-2.224,-2.2287,-2.2292,-2.2348,-2.2387,-2.2447,-2.2496,-2.2548,-2.2622,-2.2684,-2.2731,-2.2794,-2.2828,-2.2835,-2.2844,-2.2842,-2.285,-2.2785,-2.2768,-2.2838,-2.2838,-2.2838,-2.2838,-2.2838,-2.2838,-2.2125,-2.2196,-2.2219,-2.2311,-2.2347,-2.2414,-2.2445,-2.2488,-2.2528,-2.261,-2.2662,-2.2692,-2.2741,-2.2808,-2.2866,-2.2878,-2.2901,-2.291,-2.2923,-2.2861,-2.2854,-2.2847,-2.2832,-2.2914,-2.2914,-2.2983,-2.2984,-2.2984]}]]